Back to catalog

COSMOS 1642

AliveNavigationLEO
NORAD 15624·PAYLOAD·🇷🇺 Russia

Launched Mar 21, 1985 from Plesetsk Cosmodrome

Loading…

Next Passes (next 24 hours)

TLE

FreshSource: Space-Track

Epoch: Sep 14, 2026, 07:32 UTC

1 15624U 85023H   26257.31438373 -.00000012  00000-0  24061-4 0  9991
2 15624  74.0592   7.7622 0050640  52.6885 334.5890 12.56394437902669

Track COSMOS 1642 in real time with AllMySat

Download on the App Store